x

9449880 - Friday Harbor, Wa (frdw1) Weather Station

10:36 - Mon 20th Feb 2017 All times are PST. -8 hours from GMT.

  • Wind
  • Sea Temp 46°f
  • Air Temp 42°f
  • Sea Pressure 1007.5mb
  • 9449880 - Friday Harbor, Wa
  • 9449880 - Friday Harbor, Wa

More Historic Weather Station data

Upgrade to MSW Pro to gain access to the past 30 days of data for over 8000 Wavebouys and Weather Stations around the globe.

Join Pro

Comparision Forecast

View Surf forecast
   
lun. 02/20 10:36  -  1 mph 1007.5mb 46f 42f
10:30 1 2 mph 1007.5mb 46f 42f
10:24 2 3 mph 1007.6mb 46f 41f
10:18 2 3 mph 1007.5mb 46f 41f
10:12 2 3 mph 1007.4mb 46f 41f
10:06 1 2 mph 1007.2mb 46f 42f
10:00  -  1 mph 1007.1mb 46f 42f
9:36  -  2 mph 1006.8mb 46f 42f
9:30  -  1 mph 1006.8mb 46f 42f
9:24  -  2 mph 1006.8mb 46f 42f
9:18 1 2 mph 1006.8mb 46f 43f
9:12  -  1 mph 1006.8mb 46f 43f
9:06 1 2 mph 1006.9mb 46f 43f
9:00 1 2 mph 1006.9mb 46f 43f
8:36  -  3 mph 1006.8mb 46f 43f
8:30 2 5 mph 1006.7mb 46f 43f
8:24 3
mph
1006.6mb 46f 43f
8:18 2
mph
1006.6mb 46f 43f
8:12 1 2 mph 1006.6mb 46f 44f
8:06 1 3 mph 1006.7mb 46f 44f
8:00 3 5 mph 1006.7mb 46f 44f
7:36 2 3 mph 1006.7mb 46f 44f
7:30 3 5 mph 1006.7mb 46f 44f
7:24 2 3 mph 1006.7mb 46f 44f
7:18 2 3 mph 1006.7mb 46f 44f
7:12 2 3 mph 1006.7mb 46f 44f
7:06 1 2 mph 1006.7mb 46f 44f
7:00 1 2 mph 1006.7mb 46f 44f
6:36  -  1 mph 1006.5mb 46f 44f
6:30  -  1 mph 1006.5mb 46f 44f
6:24  -  1 mph 1006.4mb 46f 44f
6:18 1 2 mph 1006.4mb 46f 44f
6:12 2 5 mph 1006.4mb 46f 44f
6:06 3 5 mph 1006.3mb 46f 44f
6:00 2 3 mph 1006.1mb 46f 44f
5:36 2 3 mph 1006mb 46f 44f
5:30  -  1 mph 1006mb 46f 44f
5:24  -  2 mph 1005.9mb 46f 44f
5:18  -  1 mph 1005.9mb 46f 44f
5:12  -  1 mph 1005.9mb 46f 44f
5:06  -  1 mph 1005.9mb 46f 44f
5:00  -  mph 1005.7mb 46f 44f
4:36  -  1 mph 1005.4mb 46f 44f
4:30  -  2 mph 1005.3mb 46f 44f
4:24  -  3 mph 1005.2mb 46f 44f
4:18 2 3 mph 1005.1mb 46f 44f
4:12 2 3 mph 1005.1mb 46f 45f
4:06 3
mph
1005.1mb 46f 45f
4:00 2 3 mph 1005mb 46f 45f
3:36 3 5 mph 1004.6mb 46f 45f
3:30 1 3 mph 1004.4mb 46f 45f
3:24  -  2 mph 1004.3mb 46f 45f
3:18 1 5 mph 1004.2mb 46f 45f
3:12 2 5 mph 1004.1mb 46f 45f
3:06  -  3 mph 1004mb 46f 45f
3:00 1 3 mph 1003.8mb 46f 45f
2:36  -  2 mph 1003.5mb 46f 45f
2:30  -  2 mph 1003.3mb 46f 46f
2:24 3 6 mph 1003.2mb 46f 45f
2:18 2 6 mph 1003.1mb 46f 46f
2:12 2 5 mph 1003mb 46f 45f
2:06 2 6 mph 1002.9mb 46f 45f
2:00 2 7 mph 1002.8mb 46f 46f
1:36 3 6 mph 1002.2mb 46f 46f
1:30 5 9 mph 1002.1mb 46f 45f
1:24 5 7 mph 1002.1mb 46f 46f
1:18 3 8 mph 1002mb 46f 45f
1:12 5 8 mph 1001.9mb 46f 45f
1:06 5 8 mph 1001.8mb 46f 45f
1:00 3 8 mph 1001.7mb 46f 46f
12:36 3 7 mph 1001.3mb 46f 46f
12:30 3 8 mph 1001.3mb 46f 45f
12:24 6 8 mph 1001.2mb 46f 45f
12:18 6 9 mph 1001.2mb 46f 45f
12:12 3 8 mph 1001.2mb 46f 45f
12:06 3 8 mph 1001.1mb 46f 45f
12:00 5 9 mph 1001mb 46f 45f
11:36 5 7 mph 1000.8mb 46f 45f
11:30 1 7 mph 1000.7mb 46f 46f
11:24 3 6 mph 1000.7mb 46f 45f
11:18 1 6 mph 1000.6mb 46f 46f
11:12 2 8 mph 1000.6mb 46f 46f
11:06  -  5 mph 1000.5mb 46f 47f
11:00 1 2 mph 1000.5mb 46f 46f
10:36 1 5 mph 1000.3mb 46f 46f
10:30 1 3 mph 1000.3mb 46f 46f
10:24 2 5 mph 1000.2mb 46f 46f
10:18 1 5 mph 1000.2mb 46f 46f
10:12 2 5 mph 1000.2mb 46f 46f
10:06 2 5 mph 1000.2mb 46f 46f
10:00 1 5 mph 1000.1mb 46f 45f
9:36 1 5 mph 1000.3mb 46f 44f
9:30 2 3 mph 1000.2mb 46f 44f
9:24 1 3 mph 1000.2mb 46f 44f
9:18 1 3 mph 1000.2mb 46f 44f
9:12 2 3 mph 1000.3mb 46f 44f
9:06 2 3 mph 1000.3mb 46f 44f
9:00 3
mph
1000.3mb 46f 44f
8:36 1 2 mph 1000.2mb 46f 43f
8:30  -  3 mph 1000.2mb 46f 43f
8:24 2 5 mph 1000.2mb 46f 43f
8:18 2 5 mph 1000.2mb 46f 43f
8:12 3 5 mph 1000.1mb 46f 43f
8:06 3 6 mph 1000.1mb 46f 43f
8:00 1 5 mph 1000.1mb 46f 43f
7:36 1 3 mph 1000mb 46f 42f
7:30  -  3 mph 1000mb 46f 42f
7:24  -  2 mph 1000.1mb 46f 42f
7:18  -  1 mph 1000.2mb 46f 42f
7:12 1 2 mph 1000.2mb 46f 42f
7:06 1 2 mph 1000.2mb 46f 42f
7:00 1 2 mph 1000.2mb 46f 42f
6:36 2 3 mph 1000.3mb 46f 42f
6:30  -  1 mph 1000.3mb 46f 42f
6:24  -  1 mph 1000.3mb 46f 42f
6:18  -  1 mph 1000.3mb 46f 42f
6:12  -  2 mph 1000.4mb 46f 42f
6:06 2
mph
1000.4mb 46f 42f
6:00  -  2 mph 1000.4mb 46f 42f
5:36 2 3 mph 1000.5mb 46f 42f
5:30 2 3 mph 1000.6mb 46f 42f
5:24 3 5 mph 1000.6mb 46f 43f
5:18 3 5 mph 1000.7mb 46f 43f
5:12 3 5 mph 1000.8mb 46f 43f
5:06 5
mph
1000.8mb 46f 43f
5:00 3
mph
1000.9mb 46f 43f
4:36 5 7 mph 1001.1mb 46f 43f
4:30 6 7 mph 1001.2mb 46f 43f
4:24 6 8 mph 1001.2mb 46f 43f
4:18 6 8 mph 1001.2mb 46f 43f
4:12 6 7 mph 1001.3mb 46f 43f
4:06 6 8 mph 1001.4mb 46f 43f
4:00 7 8 mph 1001.5mb 46f 43f
3:36 6 8 mph 1001.9mb 46f 43f
3:30 7 9 mph 1001.9mb 46f 43f
3:24 8 9 mph 1001.9mb 46f 43f
3:18 7 8 mph 1001.9mb 46f 43f
3:12 6 8 mph 1001.8mb 46f 42f
3:06 6 7 mph 1001.9mb 46f 42f
3:00 5 6 mph 1001.9mb 46f 42f
2:36 5 6 mph 1002.2mb 46f 43f
2:30 5 6 mph 1002.1mb 46f 43f
2:24 6
mph
1002.1mb 46f 43f
2:18 6 7 mph 1002.1mb 46f 43f
2:12 6 7 mph 1002.2mb 46f 43f
2:06 7 8 mph 1002.2mb 46f 43f
2:00 7 8 mph 1002.2mb 46f 43f
1:36 6 7 mph 1002.4mb 46f 43f
1:30 5 6 mph 1002.4mb 46f 43f
1:24 3 5 mph 1002.4mb 46f 43f
1:18 3 5 mph 1002.5mb 46f 43f
1:12 3 5 mph 1002.5mb 46f 43f
1:06 3 6 mph 1002.5mb 46f 43f
1:00 3 6 mph 1002.6mb 46f 43f
12:36 3 6 mph 1002.5mb 46f 43f
12:30 3 6 mph 1002.4mb 46f 43f
12:24 5 7 mph 1002.3mb 46f 43f
12:18 5 7 mph 1002.3mb 46f 43f
12:12 5 6 mph 1002.2mb 46f 43f
12:06 6 7 mph 1002.2mb 46f 43f
12:00 3 7 mph 1002.2mb 46f 44f
dim. 02/19 11:36 7 9 mph 1002.1mb 46f 44f
11:30 6 10 mph 1002.1mb 46f 44f
11:24 7 11 mph 1002.1mb 46f 44f
11:18 7 10 mph 1002.1mb 46f 44f
11:12 7 11 mph 1002mb 46f 44f
11:06 6 13 mph 1001.9mb 46f 44f
11:00 6 11 mph 1001.9mb 46f 44f
10:54 7 9 mph 1001.8mb 46f 44f
10:48 8 14 mph 1001.7mb 46f 44f
10:36 7 11 mph 1001.6mb 46f 44f
10:30 6 13 mph 1001.5mb 46f 44f
10:24 6 11 mph 1001.4mb 46f 44f
10:18 8 13 mph 1001.4mb 46f 44f
10:12 6 11 mph 1001.4mb 46f 44f
10:06 9 13 mph 1001.4mb 46f 44f
10:00 8 11 mph 1001.4mb 46f 44f
9:54 7 11 mph 1001.3mb 46f 44f
9:48 7 13 mph 1001.2mb 46f 44f
9:36 6 9 mph 1001.1mb 46f 44f
9:30 7 13 mph 1001.1mb 46f 44f
9:24 8 11 mph 1000.9mb 46f 44f
9:18 6 11 mph 1000.9mb 46f 44f
9:12 6 10 mph 1000.8mb 46f 44f
9:06 7 14 mph 1000.8mb 46f 44f
9:00 5 11 mph 1000.6mb 46f 44f
8:54 7 11 mph 1000.7mb 46f 44f
8:48 7 16 mph 1000.5mb 46f 44f
8:36 7 11 mph 1000.4mb 46f 44f
8:30 10 17 mph 1000.3mb 46f 44f
8:24 13 16 mph 1000.2mb 46f 44f
8:18 9 17 mph 1000.1mb 46f 44f
8:12 13 18 mph 1000mb 46f 44f
8:06 11 15 mph 999.9mb 46f 44f
8:00 9 18 mph 999.9mb 46f 44f
7:54 9 14 mph 999.8mb 46f 44f
7:48 10 17 mph 999.7mb 46f 44f
7:36 11 16 mph 999.5mb 46f 45f
7:30 10 18 mph 999.5mb 46f 45f
7:24 11 16 mph 999.4mb 46f 45f
7:18 10 18 mph 999.3mb 46f 45f
7:12 13 20 mph 999.3mb 46f 45f
7:06 10 18 mph 999.2mb 46f 45f
7:00 13 20 mph 999mb 46f 45f
6:54 13 18 mph 998.9mb 46f 45f
6:48 11 17 mph 999mb 46f 45f
6:36 8 15 mph 998.9mb 46f 45f
6:30 9 15 mph 998.9mb 46f 45f
6:24 9 17 mph 998.8mb 46f 45f
6:18 10 15 mph 998.8mb 46f 46f
6:12 8 16 mph 998.7mb 46f 45f
6:06 10 15 mph 998.6mb 46f 45f
6:00 11 20 mph 998.5mb 46f 46f
5:54 8 17 mph 998.4mb 46f 46f
5:48 9 15 mph 998.3mb 46f 46f
5:36 10 17 mph 998.3mb 46f 46f
5:30 10 17 mph 998.2mb 46f 46f
5:24 11 21 mph 998.1mb 46f 46f
5:18 15 21 mph 998mb 46f 46f
5:12 13 22 mph 998mb 46f 46f
5:06 13 21 mph 997.9mb 46f 46f
5:00 11 21 mph 997.7mb 46f 45f
4:54 15 25 mph 997.7mb 46f 45f
4:48 14 24 mph 997.7mb 46f 45f
4:36 14 20 mph 997.5mb 46f 45f
4:30 14 18 mph 997.4mb 46f 45f
4:24 14 17 mph 997.4mb 46f 45f
4:18 10 20 mph 997.4mb 46f 45f
4:12 11 17 mph 997.3mb 46f 45f
4:06 13 26 mph 997.3mb 46f 45f
4:00 14 22 mph 997.3mb 46f 45f
3:36 14 24 mph 997.2mb 46f 45f
3:30 16 29 mph 997.1mb 46f 45f
3:24 15 23 mph 997mb 46f 45f
3:18 14 26 mph 997mb 46f 45f
3:12 15 22 mph 997mb 46f 45f
3:06 15 22 mph 997mb 46f 45f
3:00 15 22 mph 996.8mb 46f 46f
2:54 11 22 mph 996.8mb 46f 46f
2:48 15 23 mph 996.8mb 46f 46f
2:36 14 24 mph 996.5mb 46f 46f
2:30 16 25 mph 996.5mb 46f 46f
2:24 15 23 mph 996.6mb 46f 46f
2:18 11 21 mph 996.6mb 46f 45f
2:12 15 25 mph 996.7mb 46f 45f
2:06 11 21 mph 996.7mb 46f 45f
2:00 14 22 mph 996.7mb 46f 45f
1:54 13 22 mph 996.7mb 46f 45f
1:48 11 24 mph 996.7mb 46f 45f
1:36 15 22 mph 996.7mb 46f 46f
1:30 11 20 mph 996.7mb 46f 46f
1:24 11 20 mph 996.5mb 46f 46f
1:18 9 16 mph 996.6mb 46f 46f
1:12 9 16 mph 996.7mb 46f 47f
1:06 9 14 mph 996.7mb 46f 46f
1:00 7 16 mph 996.7mb 46f 46f
12:54 8 22 mph 996.9mb 46f 46f
12:48 11 18 mph 996.8mb 46f 46f
12:36 10 21 mph 996.8mb 46f 46f
12:30 9 22 mph 996.7mb 46f 46f
12:24 11 17 mph 996.7mb 46f 45f
12:18 10 16 mph 996.7mb 46f 46f
12:12 8 17 mph 996.7mb 46f 45f
12:06 8 17 mph 996.7mb 46f 45f
12:00 10 17 mph 996.7mb 46f 45f
11:54 13 21 mph 996.6mb 46f 45f
11:48 9 22 mph 996.6mb 46f 46f
11:36 13 20 mph 996.7mb 46f 45f
11:30 11 20 mph 996.6mb 46f 45f
11:24 10 18 mph 996.4mb 46f 45f
11:18 14 21 mph 996.5mb 46f 45f
11:12 16 24 mph 996.5mb 46f 45f
11:06 13 22 mph 996.4mb 46f 45f
11:00 14 21 mph 996.3mb 46f 45f
10:54 14 22 mph 996.2mb 46f 45f
10:48 11 22 mph 996.2mb 46f 45f
10:36 14 20 mph 996.1mb 46f 44f
10:30 15 21 mph 996.1mb 46f 44f
10:24 14 18 mph 995.9mb 46f 44f
10:18 11 17 mph 995.9mb 46f 44f
10:12 11 16 mph 995.9mb 46f 44f
10:06 13 17 mph 995.9mb 46f 44f
10:00 11 17 mph 995.8mb 46f 44f
9:54 8 15 mph 995.8mb 46f 44f
9:48 10 17 mph 995.8mb 46f 44f
9:36 11 15 mph 995.6mb 46f 44f
9:30 11 15 mph 995.6mb 46f 44f
9:24 10 16 mph 995.5mb 46f 44f
9:18 11 15 mph 995.5mb 46f 44f
9:12 11 15 mph 995.5mb 46f 44f
9:06 9 13 mph 995.5mb 46f 44f
9:00 7 10 mph 995.5mb 46f 44f
8:54 6 8 mph 995.5mb 46f 44f
8:48 7 10 mph 995.4mb 46f 44f
8:36 6 10 mph 995.4mb 46f 44f
8:30 6 7 mph 995.4mb 46f 44f
8:24 8 10 mph 995.2mb 46f 44f
8:18 7 11 mph 995.1mb 46f 44f
8:12 7 11 mph 995.1mb 46f 44f
8:06 10 14 mph 995.1mb 46f 44f
8:00 10 14 mph 995.1mb 46f 44f
7:54 10 14 mph 995mb 46f 44f
7:48 9 14 mph 995mb 46f 44f
7:36 10 13 mph 994.9mb 46f 44f
7:30 8 10 mph 994.9mb 46f 43f
7:24 7 8 mph 994.9mb 46f 43f
7:18 7 10 mph 994.9mb 46f 43f
7:12 8 10 mph 995mb 46f 43f
7:06 8 9 mph 995mb 46f 43f
7:00 8 11 mph 995mb 46f 43f
6:54 9 11 mph 994.9mb 46f 43f
6:48 9 11 mph 994.9mb 46f 44f
6:36 6 9 mph 994.9mb 46f 43f
6:30 5 9 mph 994.9mb 46f 43f
6:24 6 9 mph 994.9mb 46f 43f
6:18 6 9 mph 994.8mb 46f 43f
6:12 5 8 mph 994.9mb 46f 43f
6:06 5 8 mph 994.9mb 46f 43f
6:00 6 7 mph 994.9mb 46f 43f
5:54 6 9 mph 994.9mb 46f 43f
5:48 6 10 mph 994.9mb 46f 43f
5:36 7 10 mph 994.8mb 46f 43f
5:30 6 10 mph 994.7mb 46f 43f
5:24 5 10 mph 994.6mb 46f 43f
5:18 6 11 mph 994.7mb 46f 43f
5:12 7 13 mph 994.6mb 46f 43f
5:06 8 14 mph 994.6mb 46f 43f
5:00 8 11 mph 994.6mb 46f 43f
4:54 8 11 mph 994.6mb 46f 43f
4:48 8 10 mph 994.7mb 46f 43f
4:36 8 11 mph 994.7mb 46f 43f
4:30 8 11 mph 994.7mb 46f 43f
4:24 8 11 mph 994.7mb 46f 43f
4:18 10 14 mph 994.9mb 46f 43f
4:12 9 14 mph 994.9mb 46f 43f
4:06 10 13 mph 994.9mb 46f 43f
4:00 10 13 mph 994.9mb 46f 43f
3:54 9 13 mph 994.9mb 46f 44f
3:48 10 13 mph 994.9mb 46f 44f
3:36 9 13 mph 995mb 46f 44f
3:30 9 11 mph 995mb 46f 44f
3:24 8 14 mph 995mb 46f 44f
3:18 8 11 mph 995.1mb 46f 44f
3:12 7 10 mph 995.2mb 46f 44f
3:06 6 10 mph 995.2mb 46f 44f
3:00 9 14 mph 995.3mb 46f 44f
2:54 6 8 mph 995.3mb 46f 44f
2:48 8 13 mph 995.3mb 46f 44f
2:36 7 10 mph 995.3mb 46f 44f
2:30 9 11 mph 995.3mb 46f 44f
2:24 6 9 mph 995.3mb 46f 44f
2:18 7 9 mph 995.4mb 46f 44f
2:12 6 10 mph 995.4mb 46f 44f
2:06 8 13 mph 995.5mb 46f 44f
2:00 7 9 mph 995.4mb 46f 44f
1:36 7 9 mph 995.5mb 46f 44f
1:30 6 7 mph 995.5mb 46f 44f
1:24 6 7 mph 995.6mb 46f 44f
1:18 6 7 mph 995.6mb 46f 44f
1:12 6 7 mph 995.6mb 46f 44f
1:06 5 6 mph 995.7mb 46f 44f
1:00 5 6 mph 995.7mb 46f 44f
12:54 3 6 mph 995.8mb 46f 44f
12:48 6 7 mph 995.9mb 46f 44f
12:36 6 8 mph 995.9mb 46f 44f
12:30 6 8 mph 995.9mb 46f 44f
12:24 7 8 mph 995.9mb 46f 44f
12:18 6 7 mph 995.9mb 46f 44f
12:12 6 7 mph 996mb 46f 44f
12:06 6 7 mph 996mb 46f 44f
12:00 6 7 mph 996mb 46f 43f
sam. 02/18 11:54 6 7 mph 996mb 46f 43f
11:48 6 7 mph 996.1mb 46f 43f
11:36 6 7 mph 996.1mb 46f 43f
11:30 6 7 mph 996.2mb 46f 43f
11:24 6 8 mph 996.2mb 46f 43f
11:18 6 8 mph 996.2mb 46f 43f
11:12 6 8 mph 996.2mb 46f 43f
11:06 7 8 mph 996.2mb 46f 43f
11:00 6 7 mph 996.2mb 46f 43f
10:54 7 8 mph 996.2mb 46f 43f
10:48 7 8 mph 996.2mb 46f 44f
10:36 6 7 mph 996.3mb 46f 44f
10:30 6 7 mph 996.3mb 46f 43f
10:24 6 7 mph 996.3mb 46f 43f
10:18 6 7 mph 996.3mb 46f 44f
10:12 5 6 mph 996.3mb 46f 43f
10:06 6
mph
996.3mb 46f 43f
10:00 5 6 mph 996.4mb 46f 43f
9:54 5 6 mph 996.4mb 46f 43f
9:48 5 6 mph 996.4mb 46f 43f
9:36 5
mph
996.4mb 46f 43f
9:30 2 3 mph 996.4mb 46f 43f
9:24 1 2 mph 996.5mb 46f 43f
9:18 2 5 mph 996.5mb 46f 43f
9:12 3 5 mph 996.5mb 46f 43f
9:06 3 5 mph 996.4mb 46f 43f
9:00 3 5 mph 996.3mb 46f 43f
8:54 2
mph
996.4mb 46f 43f
8:48  -  1 mph 996.4mb 46f 43f
8:36  -  2 mph 996.4mb 46f 43f
8:30  -  2 mph 996.4mb 46f 43f
8:24 1 2 mph 996.3mb 46f 43f
8:18 2 3 mph 996.2mb 46f 43f
8:12 2 3 mph 996.1mb 46f 43f
8:06 3 5 mph 996.1mb 46f 43f
8:00 3 5 mph 996.1mb 46f 43f
7:54 3 5 mph 996mb 46f 43f
7:48 3 6 mph 996mb 46f 43f
7:36 5 6 mph 996.2mb 46f 43f
7:30 5 6 mph 996.2mb 46f 43f
7:24 3 5 mph 996.2mb 46f 42f
7:18 3 5 mph 996.3mb 46f 42f
7:12 3 5 mph 996.2mb 46f 42f
7:06 3
mph
996.2mb 46f 42f
7:00 3 5 mph 996.2mb 46f 42f
6:54 3 5 mph 996.3mb 46f 42f
6:48 3 5 mph 996.3mb 46f 42f
6:36 6 7 mph 996.2mb 46f 42f
6:30 5 6 mph 996.2mb 46f 42f
6:24 6 7 mph 996.2mb 46f 42f
6:18 6 7 mph 996.2mb 46f 42f
6:12 6 7 mph 996.2mb 46f 42f
6:06 5 6 mph 996.1mb 46f 43f
6:00 2
mph
996.1mb 46f 42f
5:54 1 2 mph 996.1mb 46f 42f
5:48 2 3 mph 996.1mb 46f 42f
5:36  -  mph 996.2mb 46f 42f
5:30  -  mph 996.2mb 46f 42f
5:24  -  mph 996.1mb 46f 42f
5:18  -  mph 996.2mb 46f 42f
5:12  -  1 mph 996.1mb 46f 42f
5:06  -  1 mph 996mb 46f 42f
5:00 1 2 mph 996mb 46f 42f
4:54 2
mph
996.1mb 46f 42f
4:48 1 2 mph 996.2mb 46f 42f
4:36 1 2 mph 996.2mb 46f 42f
4:30 2
mph
996.2mb 46f 42f
4:24 1 3 mph 996.2mb 46f 42f
4:18 3 6 mph 996.1mb 46f 42f
4:12 5 6 mph 996mb 46f 42f
4:06 6 7 mph 996mb 46f 42f
4:00 5 6 mph 996mb 46f 42f
3:36 2 3 mph 996.1mb 46f 42f
3:30 2 5 mph 996.1mb 46f 42f
3:24 1 3 mph 996.1mb 46f 42f
3:18 2 3 mph 996.1mb 46f 42f
3:12 2 3 mph 996.1mb 46f 42f
3:06 3 6 mph 996mb 46f 42f
3:00 3 5 mph 996mb 46f 42f
2:54 3 6 mph 996mb 46f 42f
2:48 3 5 mph 996mb 46f 42f
2:36 5 6 mph 996mb 46f 42f
2:30 3 6 mph 996mb 46f 42f
2:24 3 5 mph 995.9mb 46f 42f
2:18 3 7 mph 995.9mb 46f 42f
2:12 5 6 mph 995.9mb 46f 42f
2:06 5 6 mph 995.9mb 46f 42f
2:00 3 6 mph 995.9mb 46f 42f
1:54 5 7 mph 996mb 46f 42f
1:48 3 7 mph 996mb 46f 42f
1:36 5 8 mph 996mb 46f 42f
1:30 5 7 mph 996.1mb 46f 42f
1:24 6 9 mph 996.1mb 46f 42f
1:18 6 8 mph 996.1mb 46f 42f
1:12 5 7 mph 996.1mb 46f 42f
1:06 5 8 mph 996.1mb 46f 42f
1:00 3 6 mph 996.2mb 46f 42f
12:54 3 6 mph 996.2mb 46f 42f
12:48 5 7 mph 996.3mb 46f 42f
12:36 5 6 mph 996.3mb 46f 42f
12:30 5 7 mph 996.4mb 46f 42f
12:24 2 7 mph 996.5mb 46f 42f
12:18 3 6 mph 996.5mb 46f 42f
12:12 2 5 mph 996.6mb 46f 42f
12:06 3 6 mph 996.6mb 46f 42f
12:00 3 7 mph 996.7mb 46f 42f
11:54 3 5 mph 996.8mb 46f 42f
11:48 3 6 mph 996.8mb 46f 42f
11:36 2 7 mph 996.9mb 46f 42f
11:30 3 8 mph 996.9mb 46f 42f
11:24 5 6 mph 996.9mb 46f 42f
11:18 5 7 mph 997mb 46f 42f
11:12 3 7 mph 997mb 46f 42f
11:06 3 6 mph 997mb 46f 42f
11:00 5 7 mph 997mb 46f 42f
10:54 3 9 mph 997mb 46f 42f
10:48 3 7 mph 997mb 46f 42f
10:36 5 7 mph 997.1mb 46f 42f
10:30 5 6 mph 997.2mb 46f 42f
10:24 2 5 mph 997.3mb 46f 42f
10:18 3 6 mph 997.3mb 46f 42f
10:12 2 6 mph 997.4mb 46f 42f
10:06 3 7 mph 997.4mb 46f 42f
10:00 3 6 mph 997.4mb 46f 42f
9:54 3 7 mph 997.4mb 46f 42f
9:48 5 9 mph 997.4mb 46f 42f
9:36 3 6 mph 997.6mb 46f 42f
9:30 3 8 mph 997.6mb 46f 42f
9:24 3 7 mph 997.7mb 46f 42f
9:18 3 7 mph 997.7mb 46f 42f
9:12 6 9 mph 997.7mb 46f 42f
9:06 2 9 mph 997.7mb 46f 42f
9:00 3 7 mph 997.7mb 46f 42f
8:54 2 6 mph 997.8mb 46f 42f
8:48 2 6 mph 997.9mb 46f 42f
8:36 2 6 mph 997.9mb 46f 42f
8:30 5 8 mph 998mb 46f 42f
8:24 5 7 mph 998mb 46f 42f
8:18 3 8 mph 998mb 46f 42f
8:12 5 8 mph 998.1mb 46f 42f
8:06 5 7 mph 998.1mb 46f 42f
8:00 5 8 mph 998.1mb 46f 42f
7:54 5 7 mph 998.1mb 46f 42f
7:48 3 6 mph 998.1mb 46f 42f
7:36 3 7 mph 998.1mb 46f 42f
7:30 5 8 mph 998mb 46f 42f
7:24 3 11 mph 998.1mb 46f 42f
7:18 3 8 mph 998.1mb 46f 42f
7:12 2 6 mph 998.2mb 46f 42f
7:06 2 6 mph 998.2mb 46f 42f
7:00 2 5 mph 998.1mb 46f 42f
6:54 3 6 mph 998.2mb 46f 42f
6:48 3 8 mph 998.2mb 46f 42f
6:36 2 6 mph 998.1mb 46f 43f
6:30 3 9 mph 998.1mb 46f 43f
6:24 6 10 mph 998.2mb 46f 43f
6:18 6 11 mph 998.2mb 46f 43f
6:12 6 8 mph 998.3mb 46f 43f
6:06 5 8 mph 998.3mb 46f 43f
6:00 2 6 mph 998.4mb 46f 43f
5:36 5 13 mph 998.3mb 46f 43f
5:30 6 11 mph 998.4mb 46f 43f
5:24 5 9 mph 998.4mb 46f 43f
5:18 5 9 mph 998.4mb 46f 43f
5:12 5 9 mph 998.4mb 46f 43f
5:06 3 8 mph 998.4mb 46f 43f
5:00 6 10 mph 998.4mb 46f 43f
4:54 6 10 mph 998.5mb 46f 43f
4:48 6 13 mph 998.6mb 46f 43f
4:36 5 9 mph 998.6mb 46f 43f
4:30 5 9 mph 998.6mb 46f 43f
4:24 6 11 mph 998.6mb 46f 43f
4:18 6 9 mph 998.6mb 46f 43f
4:12 6 10 mph 998.6mb 46f 43f
4:06 7 13 mph 998.6mb 46f 43f
4:00 6 9 mph 998.7mb 46f 43f
3:54 7 11 mph 998.6mb 46f 43f
3:48 5 10 mph 998.6mb 46f 43f
3:36 6 13 mph 998.6mb 46f 43f
3:30 5 10 mph 998.6mb 46f 43f
3:24 3 13 mph 998.6mb 46f 43f
3:18 6 10 mph 998.7mb 46f 43f
3:12 3 10 mph 998.7mb 46f 43f
3:06 5 10 mph 998.7mb 46f 43f
3:00 3 10 mph 998.7mb 46f 43f
2:54 5 10 mph 998.7mb 46f 43f
2:48 5 9 mph 998.7mb 46f 43f
2:36 6 9 mph 998.7mb 46f 43f
2:30 5 8 mph 998.8mb 46f 43f
2:24 6 11 mph 998.8mb 46f 43f
2:18 6 11 mph 998.9mb 46f 43f
2:12 3 8 mph 998.9mb 46f 43f
2:06 3 8 mph 999mb 46f 44f
2:00 3 8 mph 999mb 46f 44f
1:54 2 7 mph 999.1mb 46f 44f
1:48 6 9 mph 999.1mb 46f 44f
1:36 3 9 mph 999.2mb 46f 44f
1:30 6 8 mph 999.3mb 46f 44f
1:24 5 9 mph 999.3mb 46f 44f
1:18 5 15 mph 999.3mb 46f 44f
1:12 6 11 mph 999.4mb 46f 44f
1:06 5 9 mph 999.4mb 46f 44f
1:00 5 8 mph 999.5mb 46f 44f
12:54 5 13 mph 999.5mb 46f 44f
12:48 6 9 mph 999.5mb 46f 44f
12:36 6 11 mph 999.8mb 46f 44f
12:30 6 9 mph 999.8mb 46f 44f
12:24 6 11 mph 999.8mb 46f 44f
12:18 6 9 mph 999.8mb 46f 44f
12:12 6 9 mph 999.9mb 46f 44f
12:06 6 10 mph 999.9mb 46f 44f
12:00 6 13 mph 1000mb 46f 44f
ven. 02/17 11:54 6 10 mph 1000mb 46f 44f
11:48 5 10 mph 1000.1mb 46f 44f
11:36 6 9 mph 1000.2mb 46f 44f
11:30 5 9 mph 1000.2mb 46f 44f
11:24 6 13 mph 1000.2mb 46f 44f
11:18 6 14 mph 1000.2mb 46f 44f
11:12 7 10 mph 1000.4mb 46f 44f
11:06 6 9 mph 1000.5mb 46f 44f
11:00 5 11 mph 1000.5mb 46f 44f
10:54 6 10 mph 1000.6mb 46f 44f
10:48 6 8 mph 1000.6mb 46f 44f
10:36 5 9 mph 1000.5mb 46f 44f
10:30 5 9 mph 1000.5mb 46f 44f
10:24 5 9 mph 1000.6mb 46f 44f
10:18 3 8 mph 1000.6mb 46f 44f
10:12 5 8 mph 1000.6mb 46f 44f
10:06 5 8 mph 1000.7mb 46f 44f
10:00 3 8 mph 1000.7mb 46f 44f
9:54 3 8 mph 1000.8mb 46f 44f
9:48 3 8 mph 1000.9mb 46f 44f
9:36 2 7 mph 1001mb 46f 44f
9:30 2 7 mph 1001mb 46f 44f
9:24 2 7 mph 1001mb 46f 44f
9:18 3 8 mph 1001.1mb 46f 44f
9:12 2 7 mph 1001.1mb 46f 44f
9:06 3 7 mph 1001.1mb 46f 44f
9:00 3 6 mph 1001.2mb 46f 44f
8:54 5 9 mph 1001.2mb 46f 44f
8:48 3 9 mph 1001.3mb 46f 44f
8:36 6 10 mph 1001.3mb 46f 44f
8:30 5 8 mph 1001.3mb 46f 44f
8:24 5 9 mph 1001.4mb 46f 44f
8:18 3 8 mph 1001.4mb 46f 44f
8:12 3 8 mph 1001.4mb 46f 44f
8:06 5 7 mph 1001.5mb 46f 44f
8:00 3 9 mph 1001.5mb 46f 44f
7:54 3 9 mph 1001.6mb 46f 44f
7:48 3 9 mph 1001.6mb 46f 44f
7:36 6 9 mph 1001.7mb 46f 44f
7:30 3 8 mph 1001.8mb 46f 44f
7:24 5 6 mph 1002mb 46f 44f
7:18 2 6 mph 1002mb 46f 44f
7:12 2 6 mph 1002.1mb 46f 44f
7:06 2 7 mph 1002.2mb 46f 44f
7:00 2 5 mph 1002.3mb 46f 44f
6:54 1 5 mph 1002.3mb 46f 44f
6:48 2 5 mph 1002.3mb 46f 45f
6:36 2 5 mph 1002.5mb 46f 45f
6:30 1 3 mph 1002.4mb 46f 45f
6:24 2 5 mph 1002.3mb 46f 45f
6:18 2 5 mph 1002.4mb 46f 45f
6:12 1 5 mph 1002.4mb 46f 45f
6:06 1 5 mph 1002.4mb 46f 45f
6:00  -  2 mph 1002.5mb 46f 45f
5:54 1 2 mph 1002.5mb 46f 45f
5:48 1 3 mph 1002.6mb 46f 45f
5:36  -  5 mph 1002.6mb 46f 46f
5:30 1 3 mph 1002.6mb 46f 45f
5:24 1 3 mph 1002.7mb 46f 46f
5:18 1 6 mph 1002.7mb 46f 46f
5:12 1 3 mph 1002.6mb 46f 46f
5:06  -  3 mph 1002.6mb 46f 47f
5:00  -  2 mph 1002.6mb 46f 48f
4:36 1 5 mph 1002.8mb 46f 48f
4:30 2 5 mph 1002.8mb 46f 48f
4:24  -  5 mph 1002.9mb 46f 48f
4:18 2 6 mph 1002.9mb 46f 47f
4:12 2 5 mph 1003mb 46f 47f
4:06 2 7 mph 1003mb 46f 47f
4:00 3 7 mph 1003mb 46f 48f
3:54 2 5 mph 1003.1mb 46f 48f
3:48 1 5 mph 1003.1mb 46f 49f
3:36 2 7 mph 1003.1mb 46f 48f
3:30 2 7 mph 1003.2mb 46f 49f
3:24 2 5 mph 1003.2mb 46f 49f
3:18 2 7 mph 1003.3mb 46f 49f
3:12 1 6 mph 1003.3mb 46f 49f
3:06 3 7 mph 1003.3mb 46f 48f
3:00 3 8 mph 1003.4mb 46f 49f
2:54 3 8 mph 1003.5mb 46f 49f
2:48 2 6 mph 1003.5mb 46f 49f
2:36 1 7 mph 1003.7mb 46f 49f
2:30 3 7 mph 1003.7mb 46f 49f
2:24 2 9 mph 1003.8mb 46f 49f
2:18 2 6 mph 1003.9mb 46f 49f
2:12 2 5 mph 1004mb 46f 50f
2:06 2 6 mph 1004.1mb 46f 49f
2:00 3 8 mph 1004.2mb 46f 49f
1:54 3 8 mph 1004.3mb 46f 49f
1:48 2 5 mph 1004.4mb 46f 49f
1:36 3 5 mph 1004.6mb 46f 48f
1:30 1 2 mph 1004.8mb 46f 48f
1:24 1 5 mph 1004.9mb 46f 47f
1:18 3 5 mph 1005.1mb 46f 48f
1:12 3 6 mph 1005.1mb 46f 48f
1:06 3 6 mph 1005.1mb 46f 48f
1:00 5 7 mph 1005.2mb 46f 48f
12:54 3 6 mph 1005.4mb 46f 48f
12:48 5 6 mph 1005.5mb 46f 47f
12:36  -  1 mph 1005.7mb 46f 48f
12:30  -  1 mph 1005.7mb 46f 48f
12:24 1 2 mph 1005.8mb 46f 47f
12:18 1 2 mph 1005.9mb 46f 47f
12:12 2
mph
1006mb 46f 47f
12:06  -  1 mph 1006.1mb 46f 48f
12:00  -  2 mph 1006.2mb 46f 49f
11:54 2 3 mph 1006.2mb 46f 47f
11:48  -  2 mph 1006.3mb 46f 47f
11:36 2
mph
1006.4mb 46f 47f
11:30 1 2 mph 1006.5mb 46f 49f
11:24 1 5 mph 1006.6mb 46f 47f
11:18 2
mph
1006.7mb 46f 46f
11:12  -  1 mph 1006.7mb 46f 46f
11:06  -  1 mph 1006.7mb 46f 46f
11:00 1 3 mph 1006.7mb 46f 46f
10:54 3
mph
1006.8mb 46f 46f
10:48 2 3 mph 1006.8mb 46f 46f
10:36 5
mph
1006.9mb 46f 45f
10:30 5
mph
1006.9mb 46f 46f
10:24 2 3 mph 1006.9mb 46f 46f
10:18 3 5 mph 1006.9mb 46f 46f
10:12 5
mph
1007mb 46f 46f
10:06 3 5 mph 1007.1mb 46f 46f
10:00 3 5 mph 1007.1mb 46f 45f
9:36 3 6 mph 1007.2mb 46f 45f
9:30 5 7 mph 1007.3mb 46f 45f
9:24 5 6 mph 1007.3mb 46f 45f
9:18 5 8 mph 1007.3mb 46f 45f
9:12 6 8 mph 1007.3mb 46f 45f
9:06 5 7 mph 1007.4mb 46f 45f
9:00 5 6 mph 1007.4mb 46f 45f
8:54 5 6 mph 1007.3mb 46f 45f
8:48 6 7 mph 1007.3mb 46f 45f
8:36 6 7 mph 1007.4mb 46f 45f
8:30 6 7 mph 1007.4mb 46f 45f
8:24 6
mph
1007.5mb 46f 45f
8:18 5 6 mph 1007.5mb 46f 45f
8:12 6
mph
1007.5mb 46f 45f
8:06 6
mph
1007.5mb 46f 45f
8:00 5 6 mph 1007.5mb 46f 45f
7:54 6 7 mph 1007.6mb 46f 45f